contact:dominique.lefevre@mio.osupytheas.fr, maurice.libes@osupytheas.fr, didier.mallarino@osupytheas.fr
Project:EMSO http://www.emso-fr.org/EMSO-France
Depth: 2436.0 m
Title:EMSO Ligure Ouest : Data MII capteur CSTAR
DateTime,Latitude,Longitude,Instrument_Serial,Reference_Counts,Signal_Counts,Corrected_Signal_raw_counts,Calculated_Beam_c_inverse_meters,Internal_thermistor_counts
DateTime,Latitude,Longitude,Instrument_Serial,Reference_Counts,Signal_Counts,Corrected_Signal_raw_counts,Calculated_Beam_c_inverse_meters,Internal_thermistor_counts
2024-04-10T00:01:25,42.805,6.029,CST-1368DR,4099,4295,11102,01.365,553
2024-04-10T00:04:26,42.805,6.029,CST-1368DR,4099,4294,11101,01.365,553
2024-04-10T00:07:28,42.805,6.029,CST-1368DR,4099,4293,11097,01.366,553
2024-04-10T00:10:30,42.805,6.029,CST-1368DR,4099,4292,11094,01.368,553
2024-04-10T00:13:31,42.805,6.029,CST-1368DR,4099,4295,11103,01.364,553
2024-04-10T00:16:33,42.805,6.029,CST-1368DR,4099,4292,11094,01.368,553
2024-04-10T00:19:34,42.805,6.029,CST-1368DR,4099,4294,11101,01.365,553
2024-04-10T00:22:36,42.805,6.029,CST-1368DR,4099,4294,11100,01.365,553
2024-04-10T00:25:38,42.805,6.029,CST-1368DR,4099,4294,11100,01.365,553
2024-04-10T00:28:39,42.805,6.029,CST-1368DR,4099,4294,11101,01.365,553
2024-04-10T00:31:41,42.805,6.029,CST-1368DR,4099,4292,11095,01.367,553
2024-04-10T00:34:42,42.805,6.029,CST-1368DR,4099,4293,11097,01.366,553
2024-04-10T00:37:44,42.805,6.029,CST-1368DR,4099,4294,11101,01.365,553
2024-04-10T00:40:45,42.805,6.029,CST-1368DR,4099,4294,11101,01.365,553
2024-04-10T00:43:47,42.805,6.029,CST-1368DR,4099,4295,11102,01.365,553
2024-04-10T00:46:49,42.805,6.029,CST-1368DR,4099,4294,11101,01.365,553
2024-04-10T00:49:50,42.805,6.029,CST-1368DR,4099,4293,11097,01.366,553
2024-04-10T00:52:52,42.805,6.029,CST-1368DR,4099,4291,11093,01.368,553
2024-04-10T00:55:53,42.805,6.029,CST-1368DR,4099,4292,11094,01.368,553
2024-04-10T00:58:55,42.805,6.029,CST-1368DR,4099,4293,11097,01.366,553
2024-04-10T01:01:56,42.805,6.029,CST-1368DR,4099,4293,11097,01.366,553
2024-04-10T01:04:58,42.805,6.029,CST-1368DR,4099,4294,11101,01.365,553
2024-04-10T01:08:00,42.805,6.029,CST-1368DR,4099,4291,11092,01.368,553
2024-04-10T01:11:01,42.805,6.029,CST-1368DR,4099,4290,11090,01.369,553
2024-04-10T01:14:03,42.805,6.029,CST-1368DR,4099,4294,11101,01.365,553
2024-04-10T01:17:04,42.805,6.029,CST-1368DR,4099,4295,11104,01.364,553
2024-04-10T01:20:06,42.805,6.029,CST-1368DR,4099,4291,11093,01.368,553
2024-04-10T01:23:08,42.805,6.029,CST-1368DR,4099,4294,11101,01.365,553
2024-04-10T01:26:09,42.805,6.029,CST-1368DR,4099,4293,11099,01.366,553
2024-04-10T01:29:11,42.805,6.029,CST-1368DR,4099,4294,11101,01.365,553
2024-04-10T01:32:12,42.805,6.029,CST-1368DR,4099,4293,11097,01.366,553
2024-04-10T01:35:14,42.805,6.029,CST-1368DR,4099,4293,11098,01.366,553
2024-04-10T01:38:15,42.805,6.029,CST-1368DR,4099,4294,11101,01.365,553
2024-04-10T01:41:17,42.805,6.029,CST-1368DR,4099,4295,11103,01.364,553
2024-04-10T01:44:19,42.805,6.029,CST-1368DR,4099,4293,11099,01.366,553
2024-04-10T01:47:20,42.805,6.029,CST-1368DR,4099,4295,11102,01.365,553
2024-04-10T01:50:22,42.805,6.029,CST-1368DR,4099,4295,11102,01.365,553
2024-04-10T01:53:23,42.805,6.029,CST-1368DR,4099,4295,11102,01.365,553
2024-04-10T01:56:25,42.805,6.029,CST-1368DR,4099,4291,11093,01.368,553
2024-04-10T01:59:26,42.805,6.029,CST-1368DR,4099,4293,11099,01.366,553
2024-04-10T02:02:28,42.805,6.029,CST-1368DR,4099,4295,11104,01.364,553
2024-04-10T02:05:30,42.805,6.029,CST-1368DR,4099,4292,11094,01.368,553
2024-04-10T02:08:31,42.805,6.029,CST-1368DR,4099,4292,11095,01.367,553
2024-04-10T02:11:33,42.805,6.029,CST-1368DR,4099,4294,11099,01.366,553
2024-04-10T02:14:34,42.805,6.029,CST-1368DR,4099,4296,11106,01.363,553
2024-04-10T02:17:36,42.805,6.029,CST-1368DR,4099,4293,11098,01.366,553
2024-04-10T02:20:38,42.805,6.029,CST-1368DR,4099,4293,11097,01.366,553
2024-04-10T02:23:39,42.805,6.029,CST-1368DR,4099,4294,11099,01.366,553
2024-04-10T02:26:41,42.805,6.029,CST-1368DR,4099,4293,11097,01.366,553
2024-04-10T02:29:42,42.805,6.029,CST-1368DR,4099,4294,11099,01.366,553
2024-04-10T02:32:44,42.805,6.029,CST-1368DR,4099,4294,11099,01.366,553
2024-04-10T02:35:45,42.805,6.029,CST-1368DR,4099,4294,11101,01.365,553
2024-04-10T02:38:47,42.805,6.029,CST-1368DR,4099,4293,11098,01.366,553
2024-04-10T02:41:49,42.805,6.029,CST-1368DR,4099,4294,11101,01.365,553
2024-04-10T02:44:50,42.805,6.029,CST-1368DR,4099,4293,11097,01.366,553
2024-04-10T02:47:52,42.805,6.029,CST-1368DR,4099,4288,11084,01.371,553
2024-04-10T02:50:53,42.805,6.029,CST-1368DR,4099,4293,11099,01.366,553
2024-04-10T02:53:55,42.805,6.029,CST-1368DR,4099,4292,11095,01.367,553
2024-04-10T02:56:56,42.805,6.029,CST-1368DR,4099,4291,11092,01.368,553
2024-04-10T02:59:58,42.805,6.029,CST-1368DR,4099,4294,11099,01.366,553
2024-04-10T03:03:00,42.805,6.029,CST-1368DR,4099,4294,11101,01.365,553
2024-04-10T03:06:01,42.805,6.029,CST-1368DR,4099,4292,11095,01.367,553
2024-04-10T03:09:03,42.805,6.029,CST-1368DR,4099,4295,11103,01.364,553
2024-04-10T03:12:04,42.805,6.029,CST-1368DR,4099,4292,11095,01.367,553
2024-04-10T03:15:06,42.805,6.029,CST-1368DR,4099,4294,11101,01.365,553
2024-04-10T03:18:08,42.805,6.029,CST-1368DR,4099,4291,11093,01.368,553
2024-04-10T03:21:09,42.805,6.029,CST-1368DR,4099,4293,11099,01.366,553
2024-04-10T03:24:11,42.805,6.029,CST-1368DR,4099,4294,11101,01.365,553
2024-04-10T03:27:12,42.805,6.029,CST-1368DR,4099,4294,11100,01.365,553
2024-04-10T03:30:14,42.805,6.029,CST-1368DR,4099,4294,11101,01.365,553
2024-04-10T03:33:15,42.805,6.029,CST-1368DR,4099,4293,11097,01.366,553
2024-04-10T03:36:17,42.805,6.029,CST-1368DR,4099,4293,11099,01.366,553
2024-04-10T03:39:19,42.805,6.029,CST-1368DR,4099,4295,11102,01.365,553
2024-04-10T03:42:20,42.805,6.029,CST-1368DR,4099,4293,11099,01.366,553
2024-04-10T03:45:22,42.805,6.029,CST-1368DR,4099,4294,11099,01.366,553
2024-04-10T03:48:23,42.805,6.029,CST-1368DR,4099,4292,11095,01.367,553
2024-04-10T03:51:25,42.805,6.029,CST-1368DR,4099,4296,11106,01.363,553
2024-04-10T03:54:26,42.805,6.029,CST-1368DR,4099,4295,11102,01.365,553
2024-04-10T03:57:28,42.805,6.029,CST-1368DR,4099,4293,11097,01.366,553
2024-04-10T04:00:30,42.805,6.029,CST-1368DR,4099,4293,11099,01.366,553
2024-04-10T04:03:31,42.805,6.029,CST-1368DR,4099,4294,11101,01.365,553
2024-04-10T04:06:33,42.805,6.029,CST-1368DR,4099,4294,11099,01.366,553
2024-04-10T04:09:34,42.805,6.029,CST-1368DR,4099,4294,11099,01.366,553
2024-04-10T04:12:36,42.805,6.029,CST-1368DR,4099,4294,11100,01.365,553
2024-04-10T04:15:38,42.805,6.029,CST-1368DR,4099,4292,11094,01.368,553
2024-04-10T04:18:39,42.805,6.029,CST-1368DR,4099,4295,11103,01.364,553
2024-04-10T04:21:41,42.805,6.029,CST-1368DR,4099,4293,11097,01.366,553
2024-04-10T04:24:42,42.805,6.029,CST-1368DR,4099,4295,11102,01.365,553
2024-04-10T04:27:44,42.805,6.029,CST-1368DR,4099,4293,11098,01.366,553
2024-04-10T04:30:45,42.805,6.029,CST-1368DR,4099,4293,11097,01.366,553
2024-04-10T04:33:47,42.805,6.029,CST-1368DR,4099,4294,11101,01.365,553
2024-04-10T04:36:49,42.805,6.029,CST-1368DR,4099,4292,11095,01.367,553
2024-04-10T04:39:50,42.805,6.029,CST-1368DR,4099,4291,11093,01.368,553
2024-04-10T04:42:52,42.805,6.029,CST-1368DR,4099,4294,11099,01.366,553
2024-04-10T04:45:53,42.805,6.029,CST-1368DR,4099,4296,11104,01.364,553
2024-04-10T04:48:55,42.805,6.029,CST-1368DR,4099,4294,11099,01.366,553
2024-04-10T04:51:56,42.805,6.029,CST-1368DR,4099,4294,11101,01.365,553
2024-04-10T04:54:58,42.805,6.029,CST-1368DR,4099,4293,11097,01.366,553
2024-04-10T04:58:00,42.805,6.029,CST-1368DR,4099,4292,11094,01.368,553
2024-04-10T05:01:01,42.805,6.029,CST-1368DR,4099,4294,11100,01.365,553
2024-04-10T05:04:03,42.805,6.029,CST-1368DR,4099,4295,11102,01.365,553
2024-04-10T05:07:04,42.805,6.029,CST-1368DR,4099,4294,11100,01.365,553
2024-04-10T05:10:06,42.805,6.029,CST-1368DR,4099,4294,11101,01.365,553
2024-04-10T05:13:08,42.805,6.029,CST-1368DR,4099,4290,11089,01.369,553
2024-04-10T05:16:09,42.805,6.029,CST-1368DR,4099,4294,11099,01.366,553
2024-04-10T05:19:11,42.805,6.029,CST-1368DR,4099,4292,11095,01.367,553
2024-04-10T05:22:12,42.805,6.029,CST-1368DR,4099,4291,11092,01.368,553
2024-04-10T05:25:14,42.805,6.029,CST-1368DR,4099,4293,11098,01.366,553
2024-04-10T05:28:15,42.805,6.029,CST-1368DR,4099,4293,11098,01.366,553
2024-04-10T05:31:17,42.805,6.029,CST-1368DR,4099,4293,11097,01.366,553
2024-04-10T05:34:19,42.805,6.029,CST-1368DR,4099,4295,11102,01.365,553
2024-04-10T05:37:20,42.805,6.029,CST-1368DR,4099,4293,11098,01.366,553
2024-04-10T05:40:22,42.805,6.029,CST-1368DR,4099,4294,11100,01.365,553
2024-04-10T05:43:23,42.805,6.029,CST-1368DR,4099,4292,11095,01.367,553
2024-04-10T05:46:25,42.805,6.029,CST-1368DR,4099,4293,11099,01.366,553
2024-04-10T05:49:26,42.805,6.029,CST-1368DR,4099,4292,11094,01.368,553
2024-04-10T05:52:28,42.805,6.029,CST-1368DR,4099,4293,11097,01.366,553
2024-04-10T05:55:30,42.805,6.029,CST-1368DR,4099,4291,11093,01.368,553
2024-04-10T05:58:31,42.805,6.029,CST-1368DR,4099,4293,11097,01.366,553
2024-04-10T06:01:33,42.805,6.029,CST-1368DR,4099,4291,11092,01.368,553
2024-04-10T06:04:34,42.805,6.029,CST-1368DR,4099,4292,11095,01.367,553
2024-04-10T06:07:36,42.805,6.029,CST-1368DR,4099,4292,11094,01.368,553
2024-04-10T06:10:38,42.805,6.029,CST-1368DR,4099,4290,11091,01.369,553
2024-04-10T06:13:39,42.805,6.029,CST-1368DR,4099,4292,11095,01.367,553
2024-04-10T06:16:41,42.805,6.029,CST-1368DR,4099,4293,11097,01.366,553
2024-04-10T06:19:42,42.805,6.029,CST-1368DR,4099,4290,11091,01.369,553
2024-04-10T06:22:44,42.805,6.029,CST-1368DR,4099,4290,11090,01.369,553
2024-04-10T06:25:45,42.805,6.029,CST-1368DR,4099,4291,11091,01.369,553
2024-04-10T06:28:47,42.805,6.029,CST-1368DR,4099,4291,11093,01.368,553
2024-04-10T06:31:49,42.805,6.029,CST-1368DR,4099,4291,11092,01.368,553
2024-04-10T06:34:50,42.805,6.029,CST-1368DR,4099,4292,11094,01.368,553
2024-04-10T06:37:52,42.805,6.029,CST-1368DR,4099,4291,11091,01.369,553
2024-04-10T06:40:53,42.805,6.029,CST-1368DR,4099,4290,11090,01.369,553
2024-04-10T06:43:55,42.805,6.029,CST-1368DR,4099,4290,11090,01.369,553
2024-04-10T06:46:56,42.805,6.029,CST-1368DR,4099,4287,11082,01.372,553
2024-04-10T06:49:58,42.805,6.029,CST-1368DR,4099,4287,11081,01.372,553
2024-04-10T06:53:00,42.805,6.029,CST-1368DR,4099,4288,11085,01.371,553
2024-04-10T06:56:01,42.805,6.029,CST-1368DR,4099,4286,11080,01.373,553
2024-04-10T06:59:03,42.805,6.029,CST-1368DR,4099,4290,11089,01.369,553
2024-04-10T07:02:04,42.805,6.029,CST-1368DR,4099,4289,11086,01.370,553
2024-04-10T07:05:06,42.805,6.029,CST-1368DR,4099,4293,11097,01.366,553
2024-04-10T07:08:08,42.805,6.029,CST-1368DR,4099,4290,11089,01.369,553
2024-04-10T07:11:09,42.805,6.029,CST-1368DR,4099,4289,11087,01.370,553
2024-04-10T07:14:11,42.805,6.029,CST-1368DR,4099,4290,11090,01.369,553
2024-04-10T07:17:12,42.805,6.029,CST-1368DR,4099,4291,11091,01.369,553
2024-04-10T07:20:14,42.805,6.029,CST-1368DR,4099,4291,11093,01.368,553
2024-04-10T07:23:15,42.805,6.029,CST-1368DR,4099,4291,11091,01.369,553
2024-04-10T07:26:17,42.805,6.029,CST-1368DR,4099,4291,11093,01.368,553
2024-04-10T07:29:19,42.805,6.029,CST-1368DR,4099,4292,11095,01.367,553
2024-04-10T07:32:20,42.805,6.029,CST-1368DR,4099,4289,11088,01.370,553
2024-04-10T07:35:22,42.805,6.029,CST-1368DR,4099,4290,11090,01.369,553
2024-04-10T07:38:23,42.805,6.029,CST-1368DR,4099,4291,11092,01.368,553
2024-04-10T07:41:25,42.805,6.029,CST-1368DR,4099,4291,11093,01.368,553
2024-04-10T07:44:26,42.805,6.029,CST-1368DR,4099,4290,11091,01.369,553
2024-04-10T07:47:28,42.805,6.029,CST-1368DR,4099,4292,11094,01.368,553
2024-04-10T07:50:30,42.805,6.029,CST-1368DR,4099,4292,11095,01.367,553
2024-04-10T07:53:31,42.805,6.029,CST-1368DR,4099,4292,11095,01.367,553
2024-04-10T07:56:33,42.805,6.029,CST-1368DR,4099,4291,11091,01.369,553
2024-04-10T07:59:34,42.805,6.029,CST-1368DR,4099,4291,11093,01.368,553
2024-04-10T08:02:36,42.805,6.029,CST-1368DR,4099,4290,11091,01.369,553
2024-04-10T08:05:37,42.805,6.029,CST-1368DR,4099,4291,11093,01.368,553
2024-04-10T08:08:39,42.805,6.029,CST-1368DR,4099,4290,11089,01.369,553
2024-04-10T08:11:41,42.805,6.029,CST-1368DR,4099,4291,11091,01.369,553
2024-04-10T08:14:42,42.805,6.029,CST-1368DR,4099,4290,11091,01.369,553
2024-04-10T08:17:44,42.805,6.029,CST-1368DR,4099,4289,11087,01.370,553
2024-04-10T08:20:45,42.805,6.029,CST-1368DR,4099,4290,11090,01.369,553
2024-04-10T08:23:47,42.805,6.029,CST-1368DR,4099,4290,11089,01.369,553
2024-04-10T08:26:49,42.805,6.029,CST-1368DR,4099,4290,11091,01.369,553
2024-04-10T08:29:50,42.805,6.029,CST-1368DR,4099,4289,11087,01.370,553
2024-04-10T08:32:52,42.805,6.029,CST-1368DR,4099,4291,11091,01.369,553
2024-04-10T08:35:53,42.805,6.029,CST-1368DR,4099,4289,11088,01.370,553
2024-04-10T08:38:55,42.805,6.029,CST-1368DR,4099,4290,11091,01.369,553
2024-04-10T08:41:56,42.805,6.029,CST-1368DR,4099,4291,11093,01.368,553
2024-04-10T08:44:58,42.805,6.029,CST-1368DR,4099,4289,11087,01.370,553
2024-04-10T08:48:00,42.805,6.029,CST-1368DR,4099,4290,11091,01.369,553
2024-04-10T08:51:01,42.805,6.029,CST-1368DR,4099,4292,11094,01.368,553
2024-04-10T08:54:03,42.805,6.029,CST-1368DR,4099,4292,11094,01.368,553
2024-04-10T08:57:04,42.805,6.029,CST-1368DR,4099,4291,11093,01.368,553
2024-04-10T09:00:06,42.805,6.029,CST-1368DR,4099,4291,11091,01.369,553
2024-04-10T09:03:07,42.805,6.029,CST-1368DR,4099,4291,11092,01.368,553
2024-04-10T09:06:09,42.805,6.029,CST-1368DR,4099,4291,11092,01.368,553
2024-04-10T09:09:11,42.805,6.029,CST-1368DR,4099,4292,11094,01.368,553
2024-04-10T09:12:12,42.805,6.029,CST-1368DR,4099,4291,11091,01.369,553
2024-04-10T09:15:14,42.805,6.029,CST-1368DR,4099,4292,11094,01.368,553
2024-04-10T09:18:15,42.805,6.029,CST-1368DR,4099,4291,11093,01.368,553
2024-04-10T09:21:17,42.805,6.029,CST-1368DR,4099,4292,11094,01.368,553
2024-04-10T09:24:18,42.805,6.029,CST-1368DR,4099,4290,11090,01.369,553
2024-04-10T09:27:20,42.805,6.029,CST-1368DR,4099,4289,11087,01.370,553
2024-04-10T09:30:22,42.805,6.029,CST-1368DR,4099,4290,11090,01.369,553
2024-04-10T09:33:23,42.805,6.029,CST-1368DR,4099,4291,11091,01.369,553
2024-04-10T09:36:25,42.805,6.029,CST-1368DR,4099,4291,11093,01.368,553
2024-04-10T09:39:26,42.805,6.029,CST-1368DR,4099,4290,11090,01.369,553
2024-04-10T09:42:28,42.805,6.029,CST-1368DR,4099,4290,11091,01.369,553
2024-04-10T09:45:30,42.805,6.029,CST-1368DR,4099,4291,11091,01.369,553
2024-04-10T09:48:31,42.805,6.029,CST-1368DR,4099,4290,11090,01.369,553
2024-04-10T09:51:33,42.805,6.029,CST-1368DR,4099,4290,11090,01.369,553
2024-04-10T09:54:34,42.805,6.029,CST-1368DR,4099,4290,11090,01.369,553
2024-04-10T09:57:36,42.805,6.029,CST-1368DR,4099,4287,11082,01.372,553
2024-04-10T10:00:37,42.805,6.029,CST-1368DR,4099,4290,11090,01.369,553
2024-04-10T10:03:39,42.805,6.029,CST-1368DR,4099,4288,11086,01.370,553
2024-04-10T10:06:41,42.805,6.029,CST-1368DR,4099,4288,11086,01.370,553
2024-04-10T10:09:42,42.805,6.029,CST-1368DR,4099,4290,11090,01.369,553
2024-04-10T10:12:44,42.805,6.029,CST-1368DR,4099,4288,11086,01.370,553
2024-04-10T10:15:45,42.805,6.029,CST-1368DR,4099,4289,11088,01.370,553
2024-04-10T10:18:47,42.805,6.029,CST-1368DR,4099,4289,11086,01.370,553
2024-04-10T10:21:48,42.805,6.029,CST-1368DR,4099,4288,11085,01.371,553
2024-04-10T10:24:50,42.805,6.029,CST-1368DR,4099,4288,11086,01.370,553
2024-04-10T10:27:52,42.805,6.029,CST-1368DR,4099,4288,11084,01.371,553
2024-04-10T10:30:53,42.805,6.029,CST-1368DR,4099,4289,11086,01.370,553
2024-04-10T10:33:55,42.805,6.029,CST-1368DR,4099,4289,11087,01.370,553
2024-04-10T10:36:56,42.805,6.029,CST-1368DR,4099,4289,11087,01.370,553
2024-04-10T10:39:58,42.805,6.029,CST-1368DR,4099,4287,11082,01.372,553
2024-04-10T10:43:00,42.805,6.029,CST-1368DR,4099,4288,11084,01.371,553
2024-04-10T10:46:01,42.805,6.029,CST-1368DR,4099,4289,11086,01.370,553
2024-04-10T10:49:03,42.805,6.029,CST-1368DR,4099,4287,11083,01.372,553
2024-04-10T10:52:04,42.805,6.029,CST-1368DR,4099,4289,11088,01.370,553
2024-04-10T10:55:06,42.805,6.029,CST-1368DR,4099,4285,11077,01.374,553
2024-04-10T10:58:07,42.805,6.029,CST-1368DR,4099,4288,11084,01.371,553
2024-04-10T11:01:09,42.805,6.029,CST-1368DR,4099,4288,11084,01.371,553
2024-04-10T11:04:11,42.805,6.029,CST-1368DR,4099,4287,11082,01.372,553
2024-04-10T11:07:12,42.805,6.029,CST-1368DR,4099,4287,11082,01.372,553
2024-04-10T11:10:14,42.805,6.029,CST-1368DR,4099,4287,11082,01.372,553
2024-04-10T11:13:15,42.805,6.029,CST-1368DR,4099,4286,11079,01.373,553
2024-04-10T11:16:17,42.805,6.029,CST-1368DR,4099,4287,11082,01.372,553
2024-04-10T11:19:18,42.805,6.029,CST-1368DR,4099,4287,11082,01.372,553
2024-04-10T11:22:20,42.805,6.029,CST-1368DR,4099,4287,11083,01.372,553
2024-04-10T11:25:22,42.805,6.029,CST-1368DR,4099,4285,11077,01.374,553
2024-04-10T11:28:23,42.805,6.029,CST-1368DR,4099,4287,11082,01.372,553
2024-04-10T11:31:25,42.805,6.029,CST-1368DR,4099,4284,11075,01.374,553
2024-04-10T11:34:26,42.805,6.029,CST-1368DR,4099,4286,11080,01.373,553
2024-04-10T11:37:28,42.805,6.029,CST-1368DR,4099,4287,11082,01.372,553
2024-04-10T11:40:30,42.805,6.029,CST-1368DR,4099,4286,11080,01.373,553
2024-04-10T11:43:31,42.805,6.029,CST-1368DR,4099,4286,11080,01.373,553
2024-04-10T11:46:33,42.805,6.029,CST-1368DR,4099,4286,11080,01.373,553
2024-04-10T11:49:34,42.805,6.029,CST-1368DR,4099,4286,11080,01.373,553
2024-04-10T11:52:36,42.805,6.029,CST-1368DR,4099,4287,11081,01.372,553
2024-04-10T11:55:37,42.805,6.029,CST-1368DR,4099,4286,11080,01.373,553
2024-04-10T11:58:39,42.805,6.029,CST-1368DR,4099,4287,11082,01.372,553
2024-04-10T12:01:41,42.805,6.029,CST-1368DR,4099,4287,11082,01.372,553
2024-04-10T12:04:42,42.805,6.029,CST-1368DR,4099,4284,11075,01.374,553
2024-04-10T12:07:44,42.805,6.029,CST-1368DR,4099,4286,11080,01.373,553
2024-04-10T12:10:45,42.805,6.029,CST-1368DR,4099,4287,11082,01.372,553
2024-04-10T12:13:47,42.805,6.029,CST-1368DR,4099,4286,11080,01.373,553
2024-04-10T12:16:48,42.805,6.029,CST-1368DR,4099,4287,11083,01.372,553
2024-04-10T12:19:50,42.805,6.029,CST-1368DR,4099,4286,11080,01.373,553
2024-04-10T12:22:52,42.805,6.029,CST-1368DR,4099,4289,11086,01.370,553
2024-04-10T12:25:53,42.805,6.029,CST-1368DR,4099,4286,11080,01.373,553
2024-04-10T12:28:55,42.805,6.029,CST-1368DR,4099,4287,11082,01.372,553
2024-04-10T12:31:56,42.805,6.029,CST-1368DR,4099,4287,11083,01.372,553
2024-04-10T12:34:58,42.805,6.029,CST-1368DR,4099,4288,11084,01.371,553
2024-04-10T12:37:59,42.805,6.029,CST-1368DR,4099,4288,11084,01.371,553
2024-04-10T12:41:01,42.805,6.029,CST-1368DR,4099,4288,11084,01.371,553
2024-04-10T12:44:03,42.805,6.029,CST-1368DR,4099,4287,11082,01.372,553
2024-04-10T12:47:04,42.805,6.029,CST-1368DR,4099,4288,11085,01.371,553
2024-04-10T12:50:06,42.805,6.029,CST-1368DR,4099,4288,11084,01.371,553
2024-04-10T12:53:07,42.805,6.029,CST-1368DR,4098,4287,11084,01.371,553
2024-04-10T12:56:09,42.805,6.029,CST-1368DR,4099,4288,11085,01.371,553
2024-04-10T12:59:11,42.805,6.029,CST-1368DR,4099,4287,11083,01.372,553
2024-04-10T13:02:12,42.805,6.029,CST-1368DR,4099,4288,11084,01.371,553
2024-04-10T13:05:14,42.805,6.029,CST-1368DR,4099,4286,11080,01.373,553
2024-04-10T13:08:15,42.805,6.029,CST-1368DR,4099,4288,11085,01.371,553
2024-04-10T13:11:17,42.805,6.029,CST-1368DR,4099,4288,11086,01.370,553
2024-04-10T13:14:18,42.805,6.029,CST-1368DR,4099,4288,11086,01.370,553
2024-04-10T13:17:20,42.805,6.029,CST-1368DR,4099,4286,11080,01.373,553
2024-04-10T13:20:22,42.805,6.029,CST-1368DR,4099,4286,11079,01.373,553
2024-04-10T13:23:23,42.805,6.029,CST-1368DR,4099,4288,11084,01.371,553
2024-04-10T13:26:25,42.805,6.029,CST-1368DR,4099,4287,11081,01.372,553
2024-04-10T13:29:26,42.805,6.029,CST-1368DR,4099,4287,11081,01.372,553
2024-04-10T13:32:28,42.805,6.029,CST-1368DR,4099,4286,11080,01.373,553
2024-04-10T13:35:29,42.805,6.029,CST-1368DR,4099,4287,11082,01.372,553
2024-04-10T13:38:31,42.805,6.029,CST-1368DR,4099,4286,11080,01.373,553
2024-04-10T13:41:33,42.805,6.029,CST-1368DR,4099,4288,11084,01.371,553
2024-04-10T13:44:34,42.805,6.029,CST-1368DR,4099,4287,11081,01.372,553
2024-04-10T13:47:36,42.805,6.029,CST-1368DR,4099,4285,11078,01.373,553
2024-04-10T13:50:37,42.805,6.029,CST-1368DR,4099,4284,11075,01.374,553
2024-04-10T13:53:39,42.805,6.029,CST-1368DR,4098,4286,11082,01.372,553
2024-04-10T13:56:41,42.805,6.029,CST-1368DR,4098,4286,11082,01.372,553
2024-04-10T13:59:42,42.805,6.029,CST-1368DR,4098,4285,11080,01.373,553
2024-04-10T14:02:44,42.805,6.029,CST-1368DR,4098,4287,11084,01.371,553
2024-04-10T14:05:45,42.805,6.029,CST-1368DR,4098,4287,11084,01.371,553
2024-04-10T14:08:47,42.805,6.029,CST-1368DR,4099,4286,11080,01.373,553
2024-04-10T14:11:48,42.805,6.029,CST-1368DR,4099,4286,11080,01.373,553
2024-04-10T14:14:50,42.805,6.029,CST-1368DR,4099,4286,11079,01.373,553
2024-04-10T14:17:52,42.805,6.029,CST-1368DR,4099,4285,11077,01.374,553
2024-04-10T14:20:53,42.805,6.029,CST-1368DR,4099,4286,11080,01.373,553
2024-04-10T14:23:55,42.805,6.029,CST-1368DR,4099,4284,11074,01.375,553
2024-04-10T14:26:56,42.805,6.029,CST-1368DR,4099,4286,11080,01.373,553
2024-04-10T14:29:58,42.805,6.029,CST-1368DR,4099,4286,11079,01.373,553
2024-04-10T14:33:00,42.805,6.029,CST-1368DR,4098,4285,11079,01.373,553
2024-04-10T14:36:01,42.805,6.029,CST-1368DR,4099,4287,11082,01.372,553
2024-04-10T14:39:03,42.805,6.029,CST-1368DR,4099,4286,11080,01.373,553
2024-04-10T14:42:04,42.805,6.029,CST-1368DR,4098,4286,11083,01.372,553
2024-04-10T14:45:06,42.805,6.029,CST-1368DR,4098,4288,11087,01.370,553
2024-04-10T14:48:07,42.805,6.029,CST-1368DR,4098,4286,11083,01.372,553
2024-04-10T14:51:09,42.805,6.029,CST-1368DR,4098,4288,11086,01.370,553
2024-04-10T14:54:11,42.805,6.029,CST-1368DR,4098,4287,11084,01.371,553
2024-04-10T14:57:12,42.805,6.029,CST-1368DR,4099,4287,11082,01.372,553
2024-04-10T15:00:14,42.805,6.029,CST-1368DR,4098,4287,11084,01.371,553
2024-04-10T15:03:15,42.805,6.029,CST-1368DR,4098,4286,11083,01.372,553
2024-04-10T15:06:17,42.805,6.029,CST-1368DR,4099,4288,11086,01.370,553
2024-04-10T15:09:18,42.805,6.029,CST-1368DR,4098,4288,11086,01.370,553
2024-04-10T15:12:20,42.805,6.029,CST-1368DR,4098,4287,11085,01.371,553
2024-04-10T15:15:22,42.805,6.029,CST-1368DR,4098,4288,11088,01.370,553
2024-04-10T15:18:23,42.805,6.029,CST-1368DR,4098,4288,11086,01.370,553
2024-04-10T15:21:25,42.805,6.029,CST-1368DR,4098,4287,11085,01.371,553
2024-04-10T15:24:26,42.805,6.029,CST-1368DR,4099,4287,11082,01.372,553
2024-04-10T15:27:28,42.805,6.029,CST-1368DR,4098,4288,11087,01.370,553
2024-04-10T15:30:29,42.805,6.029,CST-1368DR,4098,4287,11084,01.371,553
2024-04-10T15:33:31,42.805,6.029,CST-1368DR,4098,4288,11088,01.370,553
2024-04-10T15:36:33,42.805,6.029,CST-1368DR,4098,4287,11085,01.371,553
2024-04-10T15:39:34,42.805,6.029,CST-1368DR,4098,4290,11091,01.369,553
2024-04-10T15:42:36,42.805,6.029,CST-1368DR,4098,4289,11089,01.369,553
2024-04-10T15:45:37,42.805,6.029,CST-1368DR,4098,4288,11088,01.370,553
2024-04-10T15:48:39,42.805,6.029,CST-1368DR,4098,4288,11088,01.370,553
2024-04-10T15:51:41,42.805,6.029,CST-1368DR,4098,4286,11082,01.372,553
2024-04-10T15:54:42,42.805,6.029,CST-1368DR,4098,4288,11088,01.370,553
2024-04-10T15:57:44,42.805,6.029,CST-1368DR,4098,4289,11089,01.369,553
2024-04-10T16:00:45,42.805,6.029,CST-1368DR,4098,4288,11086,01.370,553
2024-04-10T16:03:47,42.805,6.029,CST-1368DR,4098,4289,11089,01.369,553
2024-04-10T16:06:48,42.805,6.029,CST-1368DR,4098,4288,11088,01.370,553
2024-04-10T16:09:50,42.805,6.029,CST-1368DR,4098,4287,11085,01.371,553
2024-04-10T16:12:52,42.805,6.029,CST-1368DR,4098,4287,11084,01.371,553
2024-04-10T16:15:53,42.805,6.029,CST-1368DR,4098,4288,11088,01.370,553
2024-04-10T16:18:55,42.805,6.029,CST-1368DR,4098,4287,11084,01.371,553
2024-04-10T16:21:56,42.805,6.029,CST-1368DR,4098,4288,11087,01.370,553
2024-04-10T16:24:58,42.805,6.029,CST-1368DR,4098,4286,11083,01.372,553
2024-04-10T16:27:59,42.805,6.029,CST-1368DR,4098,4288,11087,01.370,553
2024-04-10T16:31:01,42.805,6.029,CST-1368DR,4098,4287,11086,01.370,553
2024-04-10T16:34:03,42.805,6.029,CST-1368DR,4098,4287,11085,01.371,553
2024-04-10T16:37:04,42.805,6.029,CST-1368DR,4098,4288,11088,01.370,553